Location: Unspecified
(0.0000°N, 0.0000°E)
Time: 03:03:28
(UTC+00:00)

FENGYUN 1C DEB - Visible Passes

Search period start: 26 June 2022 00:00
Search period end: 06 July 2022 00:00
Orbit: 656 x 1495 km, 98.9° (Epoch: 25 June)

Date Brightness Start Highest point End Pass type
(mag) Time Alt. Az. Time Alt. Az. Time Alt. Az.
26 Jun ? 01:38:42 15° NNE 01:38:42 15° NNE 01:40:19 10° NNE visible
26 Jun ? 03:25:30 10° NW 03:25:30 10° NW 03:25:37 10° NW visible
27 Jun ? 02:33:54 19° N 02:33:54 19° N 02:35:49 10° N visible
28 Jun ? 01:42:18 16° NNE 01:42:18 16° NNE 01:44:06 10° NNE visible
29 Jun ? 02:37:30 18° NNW 02:37:30 18° NNW 02:39:24 10° NNW visible
30 Jun ? 01:45:54 17° NNE 01:45:54 17° NNE 01:47:50 10° NNE visible
01 Jul ? 02:41:07 18° NNW 02:41:07 18° NNW 02:42:55 10° NNW visible
02 Jul ? 01:49:31 18° NNE 01:49:31 18° NNE 01:51:30 10° N visible
03 Jul ? 02:44:44 17° NNW 02:44:44 17° NNW 02:46:24 10° NNW visible
04 Jul ? 01:53:09 18° NNE 01:53:09 18° NNE 01:55:08 10° N visible
05 Jul ? 02:48:23 16° NNW 02:48:23 16° NNW 02:49:50 10° NNW visible
